Location: Monrovia
(34.7865°N, 86.7139°W)
Time: 21:37:32
(UTC+00:00)

Resurs 01 Rocket - Pass Details

Date: 14 July 2020
Orbit: 635 x 644 km, 98.0° (Epoch: 08 August)

Event Time Altitude Azimuth Distance (km) Brightness Sun altitude
Exits shadow 03:08:51 17° 213° (SSW) 1,624 3.5 -21.5°
Maximum altitude 03:11:28 29° 263° (W) 1,170 3.2 -21.8°
Drops below altitude 10° 03:15:18 10° 324° (NW) 2,025 5.3 -22.3°
Sets 03:17:45 0° 335° (NNW) 2,937 6.4 -22.7°
